Previsão horária em Junqueiro

Hoje, 14 Junho, Segunda-feira

Tempo Temperatura Precipitação Vento Pressão Humidade
00:00 +23°C° 0 mm 1 m/s 746 mmHg 94%
01:00 +23°C° 0 mm 1 m/s 746 mmHg 93%
02:00 +23°C° 0 mm 1 m/s 746 mmHg 93%
03:00 +23°C° 0 mm 1 m/s 745 mmHg 93%
04:00 +23°C° 0 mm 1 m/s 745 mmHg 92%
05:00 +23°C° 0 mm 1 m/s 745 mmHg 92%
06:00 +23°C° 0 mm 1 m/s 746 mmHg 92%
07:00 +23°C° 0 mm 1 m/s 746 mmHg 93%
08:00 +24°C° 0 mm 1 m/s 746 mmHg 86%
09:00 +26°C° 0 mm 2 m/s 747 mmHg 79%
10:00 +27°C° 0 mm 3 m/s 747 mmHg 73%
11:00 +28°C° 0.1 mm 3 m/s 747 mmHg 69%
12:00 +29°C° 0.1 mm 4 m/s 747 mmHg 65%
13:00 +30°C° 0.1 mm 4 m/s 746 mmHg 60%
14:00 +29°C° 0.1 mm 4 m/s 746 mmHg 62%
15:00 +29°C° 0.1 mm 4 m/s 745 mmHg 64%
16:00 +28°C° 0.1 mm 4 m/s 745 mmHg 66%
17:00 +27°C° 0.1 mm 3 m/s 745 mmHg 75%
18:00 +25°C° 0.1 mm 3 m/s 746 mmHg 84%
19:00 +23°C° 0.1 mm 2 m/s 746 mmHg 94%
20:00 +23°C° 0.1 mm 2 m/s 746 mmHg 94%
21:00 +23°C° 0.1 mm 2 m/s 747 mmHg 95%
22:00 +23°C° 0.1 mm 1 m/s 747 mmHg 96%
23:00 +23°C° 0.2 mm 1 m/s 747 mmHg 96%

Amanhã, 15 Junho, Terça-feira

Tempo Temperatura Precipitação Vento Pressão Humidade
00:00 +23°C° 0.2 mm 1 m/s 747 mmHg 96%
01:00 +23°C° 0.2 mm 1 m/s 746 mmHg 97%
02:00 +23°C° 0.2 mm 1 m/s 746 mmHg 97%
03:00 +23°C° 0.2 mm 1 m/s 746 mmHg 97%
04:00 +23°C° 0.2 mm 1 m/s 746 mmHg 97%
05:00 +23°C° 0.4 mm 1 m/s 746 mmHg 97%
06:00 +23°C° 0.4 mm 1 m/s 746 mmHg 96%
07:00 +23°C° 0.4 mm 1 m/s 746 mmHg 96%
08:00 +24°C° 0.6 mm 1 m/s 747 mmHg 94%
09:00 +24°C° 0.6 mm 2 m/s 747 mmHg 91%
10:00 +25°C° 0.6 mm 3 m/s 748 mmHg 88%
11:00 +26°C° 0.8 mm 3 m/s 747 mmHg 85%
12:00 +26°C° 0.8 mm 4 m/s 747 mmHg 83%
13:00 +27°C° 0.8 mm 4 m/s 746 mmHg 80%
14:00 +27°C° 0.6 mm 4 m/s 746 mmHg 81%
15:00 +27°C° 0.6 mm 4 m/s 745 mmHg 82%
16:00 +26°C° 0.6 mm 4 m/s 745 mmHg 82%
17:00 +25°C° 0.2 mm 3 m/s 745 mmHg 85%
18:00 +24°C° 0.2 mm 2 m/s 746 mmHg 88%
19:00 +23°C° 0.2 mm 2 m/s 746 mmHg 90%
20:00 +23°C° 0 mm 1 m/s 746 mmHg 90%
21:00 +23°C° 0 mm 1 m/s 746 mmHg 90%
22:00 +22°C° 0 mm 1 m/s 747 mmHg 90%
23:00 +22°C° 0 mm 1 m/s 746 mmHg 91%

Depois de amanhã, 16 Junho, Quarta-feira

Tempo Temperatura Precipitação Vento Pressão Humidade
00:00 +22°C° 0 mm 1 m/s 746 mmHg 91%
01:00 +20°C° 0 mm 0 m/s 746 mmHg 92%
02:00 +20°C° 0 mm 0 m/s 746 mmHg 92%
03:00 +22°C° 0 mm 1 m/s 745 mmHg 92%
04:00 +23°C° 0 mm 1 m/s 745 mmHg 92%
05:00 +23°C° 0 mm 1 m/s 745 mmHg 92%
06:00 +21°C° 0 mm 0 m/s 746 mmHg 92%
07:00 +21°C° 0 mm 0 m/s 746 mmHg 92%
08:00 +24°C° 0 mm 1 m/s 746 mmHg 87%
09:00 +25°C° 0 mm 2 m/s 746 mmHg 81%
10:00 +27°C° 0 mm 2 m/s 747 mmHg 76%
11:00 +27°C° 0 mm 2 m/s 746 mmHg 72%
12:00 +28°C° 0 mm 3 m/s 746 mmHg 69%
13:00 +29°C° 0 mm 3 m/s 745 mmHg 65%
14:00 +28°C° 0 mm 3 m/s 745 mmHg 68%
15:00 +28°C° 0 mm 3 m/s 745 mmHg 71%
16:00 +27°C° 0 mm 3 m/s 744 mmHg 74%
17:00 +26°C° 0 mm 3 m/s 745 mmHg 78%
18:00 +24°C° 0 mm 2 m/s 745 mmHg 83%
19:00 +23°C° 0 mm 2 m/s 745 mmHg 88%
20:00 +23°C° 0 mm 2 m/s 746 mmHg 89%
21:00 +22°C° 0 mm 1 m/s 746 mmHg 91%
22:00 +22°C° 0 mm 1 m/s 746 mmHg 92%
23:00 +22°C° 0 mm 1 m/s 746 mmHg 92%

17 Junho, Quinta-feira

Tempo Temperatura Precipitação Vento Pressão Humidade
00:00 +21°C° 0 mm 1 m/s 746 mmHg 92%
01:00 +19°C° 0 mm 0 m/s 746 mmHg 93%
02:00 +19°C° 0 mm 0 m/s 746 mmHg 93%
03:00 +19°C° 0 mm 0 m/s 746 mmHg 94%
04:00 +19°C° 0 mm 0 m/s 745 mmHg 94%
05:00 +21°C° 0 mm 1 m/s 746 mmHg 94%
06:00 +21°C° 0 mm 1 m/s 746 mmHg 94%
07:00 +22°C° 0 mm 1 m/s 747 mmHg 94%
08:00 +23°C° 0 mm 1 m/s 747 mmHg 86%
09:00 +25°C° 0 mm 2 m/s 747 mmHg 79%
10:00 +27°C° 0 mm 3 m/s 748 mmHg 72%
11:00 +28°C° 0 mm 3 m/s 747 mmHg 67%
12:00 +29°C° 0 mm 4 m/s 747 mmHg 62%
13:00 +30°C° 0 mm 4 m/s 747 mmHg 57%
14:00 +29°C° 0 mm 4 m/s 746 mmHg 59%
15:00 +29°C° 0 mm 4 m/s 746 mmHg 61%
16:00 +28°C° 0 mm 5 m/s 745 mmHg 63%
17:00 +26°C° 0 mm 4 m/s 746 mmHg 71%
18:00 +25°C° 0 mm 3 m/s 746 mmHg 80%
19:00 +23°C° 0 mm 2 m/s 747 mmHg 88%
20:00 +21°C° 0 mm 2 m/s 747 mmHg 89%
21:00 +21°C° 0 mm 2 m/s 747 mmHg 90%
22:00 +21°C° 0 mm 1 m/s 747 mmHg 91%
23:00 +21°C° 0 mm 1 m/s 747 mmHg 91%

18 Junho, Sexta-feira

Tempo Temperatura Precipitação Vento Pressão Humidade
00:00 +21°C° 0 mm 1 m/s 747 mmHg 91%
01:00 +21°C° 0 mm 1 m/s 747 mmHg 91%
02:00 +21°C° 0 mm 1 m/s 747 mmHg 90%
03:00 +21°C° 0 mm 1 m/s 747 mmHg 89%
04:00 +22°C° 0 mm 1 m/s 746 mmHg 88%
05:00 +22°C° 0 mm 1 m/s 747 mmHg 85%
06:00 +23°C° 0 mm 1 m/s 747 mmHg 82%
07:00 +23°C° 0 mm 1 m/s 747 mmHg 79%
08:00 +25°C° 0 mm 2 m/s 748 mmHg 73%
09:00 +26°C° 0 mm 3 m/s 748 mmHg 67%
10:00 +27°C° 0 mm 4 m/s 749 mmHg 62%
11:00 +28°C° 0 mm 4 m/s 748 mmHg 60%
12:00 +29°C° 0 mm 5 m/s 748 mmHg 58%
13:00 +29°C° 0 mm 5 m/s 748 mmHg 56%
14:00 +29°C° 0 mm 5 m/s 747 mmHg 58%
15:00 +28°C° 0 mm 5 m/s 747 mmHg 60%
16:00 +28°C° 0 mm 5 m/s 747 mmHg 61%
17:00 +26°C° 0 mm 4 m/s 747 mmHg 69%
18:00 +24°C° 0 mm 3 m/s 747 mmHg 77%
19:00 +23°C° 0 mm 2 m/s 748 mmHg 84%
20:00 +21°C° 0 mm 2 m/s 748 mmHg 85%
21:00 +22°C° 0 mm 1 m/s 748 mmHg 86%
22:00 +22°C° 0 mm 1 m/s 748 mmHg 86%
23:00 +22°C° 0 mm 1 m/s 748 mmHg 87%

19 Junho, Sábado

Tempo Temperatura Precipitação Vento Pressão Humidade
00:00 +22°C° 0 mm 1 m/s 748 mmHg 87%
01:00 +22°C° 0 mm 1 m/s 748 mmHg 87%
02:00 +22°C° 0 mm 1 m/s 747 mmHg 87%
03:00 +22°C° 0 mm 1 m/s 747 mmHg 87%
04:00 +22°C° 0 mm 1 m/s 747 mmHg 87%
05:00 +22°C° 0 mm 1 m/s 747 mmHg 85%
06:00 +23°C° 0 mm 1 m/s 747 mmHg 82%
07:00 +23°C° 0 mm 1 m/s 747 mmHg 80%
08:00 +24°C° 0 mm 2 m/s 748 mmHg 76%
09:00 +25°C° 0 mm 2 m/s 748 mmHg 72%
10:00 +26°C° 0 mm 3 m/s 748 mmHg 68%
11:00 +27°C° 0 mm 4 m/s 748 mmHg 65%
12:00 +28°C° 0 mm 4 m/s 748 mmHg 63%
13:00 +29°C° 0 mm 4 m/s 747 mmHg 60%
14:00 +28°C° 0 mm 4 m/s 747 mmHg 62%
15:00 +28°C° 0 mm 4 m/s 746 mmHg 63%
16:00 +28°C° 0 mm 4 m/s 746 mmHg 64%
17:00 +27°C° 0 mm 3 m/s 746 mmHg 69%
18:00 +25°C° 0 mm 3 m/s 747 mmHg 75%
19:00 +24°C° 0 mm 2 m/s 747 mmHg 80%
20:00 +24°C° 0 mm 1 m/s 747 mmHg 80%
21:00 +24°C° 0 mm 1 m/s 747 mmHg 80%
22:00 +24°C° 0 mm 1 m/s 747 mmHg 81%
23:00 +23°C° 0 mm 1 m/s 747 mmHg 84%
Mostrar mais

Necessitamos do seu Consentimento

A Meteoprog e os seus Fornecedores de Serviços podem armazenar e aceder a dados pessoais como cookies, identificadores do dispositivo ou outras tecnologias semelhantes existentes no seu dispositivo e processar estes dados para personalizar conteúdos e anúncios, assim como funcionalidades nas redes sociais e análise de tráfego.

  • Armazenar e/ou aceder a informações no seu dispositivo

    Os cookies, identificadores do dispositivo ou outras informações podem ser armazenados ou acedidos no seu dispositivo, para os fins acima indicados.

  • Anúncios e conteúdos personalizados, medição de anúncios e conteúdos, dados sobre o público-alvo e desenvolvimento de produtos

    Os anúncios e os conteúdos podem ser personalizados com base num perfil. Podem ser adicionados dados adicionais para uma maior personalização dos anúncios e dos conteúdos. A eficácia dos anúncios e dos conteúdos pode ser medida. Podem ser obtidas informações sobre o público que visualizou os anúncios e os conteúdos. Estes dados podem ser usados para desenvolver ou melhorar sistemas, softwares ou a experiência do utilizador.

Ao clicar em "Eu concordo”, permitirá o uso de cookies, identificadores do dispositivo e web beacons mencionados ou outras tecnologias semelhantes. As configurações do navegador do seu dispositivo podem ser alteradas.

Para certos fins, podem ser invocados interesses legítimos ao invés de consentimento. Pode ler mais informação sobre este assunto na nossa Política de Privacidade e Cookies.